This is the latest recevied weather packets stored in our database for station/object K7NDG. If no packets are shown the sender has not sent any weather packets the latest 10 day(s).
| Time | Temp. | Humidity | Pressure | Rain* | Wind** | Luminosity | Snow |
|---|---|---|---|---|---|---|---|
| 1788564156 | 23.89° C | 47% | 1012.5 hPa | 0 mm | - | 484 W/m² | - |
| 1788563851 | 23.33° C | 48% | 1012.6 hPa | 0 mm | - | 494 W/m² | - |
| 1788563547 | 23.33° C | 48% | 1012.5 hPa | 0 mm | - | 434 W/m² | - |
| 1788563247 | 22.78° C | 48% | 1012.5 hPa | 0 mm | - | 317 W/m² | - |
| 1788562941 | 22.22° C | 49% | 1012.7 hPa | 0 mm | - | 284 W/m² | - |
| 1788562640 | 22.22° C | 48% | 1012.7 hPa | 0 mm | - | 292 W/m² | - |
| 1788562335 | 21.67° C | 46% | 1012.5 hPa | 0 mm | - | 481 W/m² | - |
| 1788562033 | 21.67° C | 47% | 1012.6 hPa | 0 mm | - | 402 W/m² | - |
| 1788561729 | 21.67° C | 46% | 1012.7 hPa | 0 mm | - | 383 W/m² | - |
| 1788561428 | 21.67° C | 46% | 1012.5 hPa | 0 mm | - | 553 W/m² | - |
| 1788561123 | 21.67° C | 46% | 1012.8 hPa | 0 mm | - | 587 W/m² | - |
| 1788560819 | 21.11° C | 52% | 1012.7 hPa | 0 mm | - | 613 W/m² | - |
| 1788560515 | 21.11° C | 53% | 1012.5 hPa | 0 mm | - | 538 W/m² | - |
| 1788560214 | 21.11° C | 54% | 1012.5 hPa | 0 mm | - | 144 W/m² | - |
| 1788559909 | 21.11° C | 55% | 1012.5 hPa | 0 mm | - | 122 W/m² | - |
| 1788559603 | 22.22° C | 52% | 1012.4 hPa | 0 mm | - | 114 W/m² | - |
| 1788559299 | 23.33° C | 50% | 1012.7 hPa | 0 mm | - | 448 W/m² | - |
| 1788558993 | 23.33° C | 52% | 1012.4 hPa | 0 mm | - | 184 W/m² | - |
| 1788558690 | 23.89° C | 49% | 1012.5 hPa | 0 mm | - | 394 W/m² | - |
| 1788558390 | 23.33° C | 53% | 1012.7 hPa | 0 mm | - | 328 W/m² | - |
| 1788558085 | 22.78° C | 55% | 1012.6 hPa | 0 mm | - | 404 W/m² | - |
| 1788557783 | 22.78° C | 52% | 1012.7 hPa | 0 mm | - | 185 W/m² | - |
| 1788557480 | 23.89° C | 48% | 1012.7 hPa | 0 mm | - | 192 W/m² | - |
| 1788557174 | 23.89° C | 51% | 1012.7 hPa | 0 mm | - | 591 W/m² | - |
| 1788556869 | 23.33° C | 54% | 1012.8 hPa | 0 mm | - | 606 W/m² | - |
* Rain latest hour (hover to see other rain measurements)
** Current wind speed in m/s (hover to see current wind gust speed)